| time (UTC) | temp F | wind direction | speed MPH | gust MPH | rain 1hr in | rain 24hr in | rain mn in | humidity % | barometer mb |
| 20260504030201 | 53 | 263 | 3.0 | 7.0 | 0.00 | 0.00 | 0.00 | 59 | 1009.9 |
| 20260504025701 | 53 | 241 | 4.0 | 8.0 | 0.00 | 0.00 | 0.00 | 59 | 1009.9 |
| 20260504025201 | 53 | 238 | 3.0 | 8.0 | 0.00 | 0.00 | 0.00 | 59 | 1009.9 |
| 20260504024700 | 53 | 256 | 3.0 | 10.0 | 0.00 | 0.00 | 0.00 | 59 | 1009.9 |
| 20260504024200 | 53 | 254 | 3.0 | 10.0 | 0.00 | 0.00 | 0.00 | 59 | 1009.9 |
| 20260504023701 | 53 | 259 | 3.0 | 9.0 | 0.00 | 0.00 | 0.00 | 59 | 1009.8 |
| 20260504022701 | 53 | 254 | 4.0 | 11.0 | 0.00 | 0.00 | 0.00 | 60 | 1009.9 |
| 20260504022201 | 52 | 264 | 4.0 | 11.0 | 0.00 | 0.00 | 0.00 | 60 | 1010.0 |
| 20260504021701 | 52 | 247 | 3.0 | 9.0 | 0.00 | 0.00 | 0.00 | 60 | 1010.1 |
| 20260504021201 | 52 | 236 | 3.0 | 12.0 | 0.00 | 0.00 | 0.00 | 61 | 1010.3 |
| 20260504020426 | 52 | 241 | 4.0 | 10.0 | 0.00 | 0.00 | 0.00 | 61 | 1010.5 |
| 20260504015701 | 52 | 286 | 4.0 | 12.0 | 0.00 | 0.00 | 0.00 | 61 | 1010.6 |
| 20260504015200 | 53 | 271 | 4.0 | 13.0 | 0.00 | 0.00 | 0.00 | 61 | 1010.6 |
| 20260504014701 | 53 | 262 | 4.0 | 13.0 | 0.00 | 0.00 | 0.00 | 61 | 1010.7 |
| 20260504014423 | 53 | 296 | 4.0 | 15.0 | 0.00 | 0.00 | 0.00 | 60 | 1010.7 |
| 20260504013923 | 53 | 298 | 6.0 | 15.0 | 0.00 | 0.00 | 0.00 | 60 | 1010.8 |
| 20260504013201 | 53 | 300 | 8.0 | 20.0 | 0.00 | 0.00 | 0.00 | 59 | 1010.7 |
| 20260504012701 | 53 | 261 | 9.0 | 20.0 | 0.00 | 0.00 | 0.00 | 59 | 1010.6 |
| 20260504012200 | 54 | 263 | 7.0 | 20.0 | 0.00 | 0.00 | 0.00 | 57 | 1010.5 |
| 20260504011701 | 54 | 270 | 5.0 | 18.0 | 0.00 | 0.00 | 0.00 | 55 | 1010.4 |
| 20260504011201 | 54 | 321 | 4.0 | 13.0 | 0.00 | 0.00 | 0.00 | 53 | 1010.3 |
| 20260504010700 | 54 | 288 | 4.0 | 13.0 | 0.00 | 0.00 | 0.00 | 54 | 1010.1 |
| 20260504010159 | 54 | 285 | 5.0 | 13.0 | 0.00 | 0.00 | 0.00 | 53 | 1010.1 |
| 20260504005659 | 54 | 286 | 5.0 | 12.0 | 0.00 | 0.00 | 0.00 | 53 | 1010.0 |
| 20260504005425 | 54 | 278 | 6.0 | 16.0 | 0.00 | 0.00 | 0.00 | 53 | 1010.0 |
| 20260504004700 | 55 | 258 | 8.0 | 17.0 | 0.00 | 0.00 | 0.00 | 53 | 1010.0 |
| 20260504004159 | 55 | 327 | 8.0 | 21.0 | 0.00 | 0.00 | 0.00 | 52 | 1010.1 |
| 20260504003659 | 55 | 300 | 7.0 | 21.0 | 0.00 | 0.00 | 0.00 | 51 | 1010.1 |
| 20260504003159 | 55 | 234 | 7.0 | 18.0 | 0.00 | 0.00 | 0.00 | 51 | 1010.0 |
| 20260504002701 | 55 | 296 | 8.0 | 21.0 | 0.00 | 0.00 | 0.00 | 50 | 1010.0 |
| 20260504002200 | 55 | 265 | 8.0 | 21.0 | 0.00 | 0.00 | 0.00 | 50 | 1009.9 |
| 20260504001659 | 55 | 271 | 8.0 | 20.0 | 0.00 | 0.00 | 0.00 | 50 | 1009.9 |
| 20260504001159 | 55 | 317 | 7.0 | 17.0 | 0.00 | 0.00 | 0.00 | 49 | 1009.7 |
| 20260504000659 | 55 | 284 | 6.0 | 14.0 | 0.00 | 0.00 | 0.00 | 49 | 1009.7 |
| 20260504000159 | 55 | 312 | 5.0 | 13.0 | 0.00 | 0.00 | 0.00 | 49 | 1009.6 |
| 20260503235659 | 55 | 267 | 5.0 | 14.0 | 0.00 | 0.00 | 0.00 | 50 | 1009.6 |
| 20260503235159 | 55 | 265 | 5.0 | 14.0 | 0.00 | 0.00 | 0.00 | 50 | 1009.4 |
| 20260503234200 | 55 | 262 | 6.0 | 21.0 | 0.00 | 0.00 | 0.00 | 49 | 1009.4 |
| 20260503233659 | 55 | 238 | 6.0 | 15.0 | 0.00 | 0.00 | 0.00 | 48 | 1009.4 |
| 20260503233200 | 55 | 267 | 5.0 | 10.0 | 0.00 | 0.00 | 0.00 | 48 | 1009.6 |
| 20260503232659 | 55 | 238 | 6.0 | 17.0 | 0.00 | 0.00 | 0.00 | 48 | 1009.4 |
| 20260503232420 | 55 | 269 | 8.0 | 20.0 | 0.00 | 0.00 | 0.00 | 47 | 1009.6 |
| 20260503231659 | 55 | 248 | 6.0 | 20.0 | 0.00 | 0.00 | 0.00 | 48 | 1009.6 |
| 20260503231424 | 55 | 319 | 5.0 | 15.0 | 0.00 | 0.00 | 0.00 | 50 | 1009.7 |
| 20260503230659 | 55 | 284 | 5.0 | 15.0 | 0.00 | 0.00 | 0.00 | 50 | 1009.8 |
| 20260503230158 | 55 | 305 | 6.0 | 17.0 | 0.00 | 0.00 | 0.00 | 51 | 1009.8 |
| 20260503225925 | 55 | 296 | 7.0 | 23.0 | 0.00 | 0.00 | 0.00 | 50 | 1010.2 |
| 20260503225423 | 55 | 273 | 6.0 | 23.0 | 0.00 | 0.00 | 0.00 | 49 | 1009.7 |
| 20260503224919 | 55 | 307 | 3.0 | 10.0 | 0.00 | 0.00 | 0.00 | 49 | 1009.9 |
| 20260503224159 | 55 | 236 | 3.0 | 10.0 | 0.00 | 0.00 | 0.00 | 49 | 1009.8 |
| 20260503223700 | 55 | 32 | 3.0 | 9.0 | 0.00 | 0.00 | 0.00 | 50 | 1009.8 |
| 20260503223159 | 55 | 268 | 3.0 | 9.0 | 0.00 | 0.00 | 0.00 | 50 | 1009.6 |
| 20260503222659 | 55 | 242 | 4.0 | 9.0 | 0.00 | 0.00 | 0.00 | 49 | 1009.6 |
| 20260503222422 | 56 | 250 | 5.0 | 10.0 | 0.00 | 0.00 | 0.00 | 49 | 1009.7 |
| 20260503221659 | 56 | 263 | 4.0 | 10.0 | 0.00 | 0.00 | 0.00 | 48 | 1009.6 |
| 20260503221159 | 56 | 250 | 4.0 | 9.0 | 0.00 | 0.00 | 0.00 | 48 | 1009.6 |
| 20260503220656 | 56 | 238 | 4.0 | 9.0 | 0.00 | 0.00 | 0.00 | 47 | 1009.5 |
| 20260503220157 | 57 | 233 | 4.0 | 10.0 | 0.00 | 0.00 | 0.00 | 49 | 1009.6 |
| 20260503215656 | 56 | 246 | 4.0 | 10.0 | 0.00 | 0.00 | 0.00 | 48 | 1009.6 |
| 20260503215157 | 56 | 285 | 4.0 | 12.0 | 0.00 | 0.00 | 0.00 | 47 | 1009.6 |
| 20260503214657 | 56 | 272 | 4.0 | 12.0 | 0.00 | 0.00 | 0.00 | 48 | 1009.5 |
| 20260503214156 | 56 | 243 | 5.0 | 13.0 | 0.00 | 0.00 | 0.00 | 47 | 1009.5 |
| 20260503213657 | 56 | 288 | 6.0 | 13.0 | 0.00 | 0.00 | 0.00 | 47 | 1009.6 |
| 20260503213158 | 56 | 239 | 6.0 | 14.0 | 0.00 | 0.00 | 0.00 | 46 | 1009.6 |
| 20260503212658 | 56 | 289 | 5.0 | 14.0 | 0.00 | 0.00 | 0.00 | 46 | 1009.7 |
| 20260503212157 | 56 | 285 | 4.0 | 11.0 | 0.00 | 0.00 | 0.00 | 49 | 1009.6 |
| 20260503211656 | 56 | 263 | 5.0 | 14.0 | 0.00 | 0.00 | 0.00 | 47 | 1009.5 |
| 20260503211157 | 56 | 281 | 5.0 | 14.0 | 0.00 | 0.00 | 0.00 | 47 | 1009.7 |
| 20260503210657 | 56 | 229 | 5.0 | 11.0 | 0.00 | 0.00 | 0.00 | 48 | 1009.7 |
| 20260503210156 | 56 | 280 | 5.0 | 12.0 | 0.00 | 0.00 | 0.00 | 48 | 1009.6 |
| 20260503205920 | 56 | 281 | 5.0 | 12.0 | 0.00 | 0.00 | 0.00 | 47 | 1009.7 |
| 20260503205154 | 56 | 284 | 4.0 | 10.0 | 0.00 | 0.00 | 0.00 | 48 | 1009.7 |
| 20260503204656 | 55 | 258 | 4.0 | 13.0 | 0.00 | 0.00 | 0.00 | 48 | 1009.9 |
| 20260503204416 | 55 | 300 | 5.0 | 13.0 | 0.00 | 0.00 | 0.00 | 48 | 1009.9 |
| 20260503203653 | 55 | 255 | 4.0 | 13.0 | 0.00 | 0.00 | 0.00 | 48 | 1010.0 |
| 20260503203152 | 55 | 289 | 5.0 | 13.0 | 0.00 | 0.00 | 0.00 | 47 | 1010.0 |
| 20260503202652 | 55 | 188 | 5.0 | 13.0 | 0.00 | 0.00 | 0.00 | 49 | 1010.1 |
| 20260503202153 | 55 | 252 | 5.0 | 13.0 | 0.00 | 0.00 | 0.00 | 46 | 1010.1 |
| 20260503201652 | 55 | 288 | 6.0 | 14.0 | 0.00 | 0.00 | 0.00 | 47 | 1010.3 |
| 20260503201153 | 55 | 327 | 6.0 | 14.0 | 0.00 | 0.00 | 0.00 | 46 | 1010.2 |
| 20260503200653 | 56 | 343 | 5.0 | 15.0 | 0.00 | 0.00 | 0.00 | 47 | 1010.3 |
| 20260503200153 | 56 | 167 | 6.0 | 15.0 | 0.00 | 0.00 | 0.00 | 48 | 1010.2 |
| 20260503195653 | 55 | 290 | 7.0 | 15.0 | 0.00 | 0.00 | 0.00 | 47 | 1010.4 |
| 20260503195152 | 56 | 292 | 7.0 | 15.0 | 0.00 | 0.00 | 0.00 | 48 | 1010.4 |
| 20260503194653 | 56 | 294 | 7.0 | 15.0 | 0.00 | 0.00 | 0.00 | 48 | 1010.5 |
| 20260503194417 | 56 | 304 | 5.0 | 13.0 | 0.00 | 0.00 | 0.00 | 49 | 1010.5 |
| 20260503193652 | 56 | 302 | 4.0 | 11.0 | 0.00 | 0.00 | 0.00 | 51 | 1010.6 |
| 20260503193153 | 55 | 247 | 6.0 | 16.0 | 0.00 | 0.00 | 0.00 | 52 | 1010.7 |
| 20260503192652 | 55 | 286 | 7.0 | 16.0 | 0.00 | 0.00 | 0.00 | 50 | 1010.7 |
| 20260503192153 | 55 | 296 | 5.0 | 13.0 | 0.00 | 0.00 | 0.00 | 51 | 1010.7 |
| 20260503191653 | 54 | 234 | 5.0 | 13.0 | 0.00 | 0.00 | 0.00 | 50 | 1010.7 |
| 20260503191153 | 54 | 299 | 5.0 | 11.0 | 0.00 | 0.00 | 0.00 | 50 | 1010.8 |
| 20260503190654 | 54 | 307 | 7.0 | 17.0 | 0.00 | 0.00 | 0.00 | 50 | 1010.8 |
| 20260503190152 | 54 | 288 | 7.0 | 17.0 | 0.00 | 0.00 | 0.00 | 48 | 1010.9 |
| 20260503185652 | 55 | 305 | 6.0 | 14.0 | 0.00 | 0.00 | 0.00 | 49 | 1010.8 |
| 20260503185153 | 55 | 250 | 7.0 | 15.0 | 0.00 | 0.00 | 0.00 | 50 | 1010.8 |
| 20260503184653 | 56 | 296 | 7.0 | 16.0 | 0.00 | 0.00 | 0.00 | 47 | 1010.8 |
| 20260503184153 | 56 | 278 | 6.0 | 16.0 | 0.00 | 0.00 | 0.00 | 48 | 1010.9 |
| 20260503183653 | 56 | 246 | 7.0 | 15.0 | 0.00 | 0.00 | 0.00 | 51 | 1010.8 |
| 20260503183417 | 55 | 263 | 6.0 | 15.0 | 0.00 | 0.00 | 0.00 | 48 | 1011.1 |
| 20260503182653 | 54 | 282 | 5.0 | 13.0 | 0.00 | 0.00 | 0.00 | 50 | 1011.1 |
| 20260503182412 | 53 | 317 | 5.0 | 13.0 | 0.00 | 0.00 | 0.00 | 48 | 1011.3 |
| 20260503181652 | 53 | 310 | 5.0 | 11.0 | 0.00 | 0.00 | 0.00 | 50 | 1011.4 |
| 20260503181410 | 53 | 271 | 4.0 | 11.0 | 0.00 | 0.00 | 0.00 | 50 | 1011.3 |
| 20260503180654 | 53 | 251 | 5.0 | 13.0 | 0.00 | 0.00 | 0.00 | 51 | 1011.5 |
| 20260503180152 | 53 | 259 | 4.0 | 13.0 | 0.00 | 0.00 | 0.00 | 48 | 1011.4 |
| 20260503175915 | 54 | 254 | 4.0 | 14.0 | 0.00 | 0.00 | 0.00 | 48 | 1011.4 |
| 20260503175153 | 54 | 265 | 5.0 | 14.0 | 0.00 | 0.00 | 0.00 | 51 | 1011.6 |
| 20260503174652 | 53 | 229 | 5.0 | 14.0 | 0.00 | 0.00 | 0.00 | 50 | 1011.7 |
| 20260503174152 | 53 | 301 | 5.0 | 12.0 | 0.00 | 0.00 | 0.00 | 49 | 1011.7 |
| 20260503173653 | 54 | 256 | 5.0 | 12.0 | 0.00 | 0.00 | 0.00 | 48 | 1011.9 |
| 20260503173153 | 53 | 235 | 5.0 | 12.0 | 0.00 | 0.00 | 0.00 | 51 | 1012.0 |
| 20260503172652 | 53 | 307 | 5.0 | 12.0 | 0.00 | 0.00 | 0.00 | 47 | 1012.0 |
| 20260503172152 | 53 | 277 | 5.0 | 12.0 | 0.00 | 0.00 | 0.00 | 50 | 1012.2 |
| 20260503171652 | 53 | 355 | 4.0 | 12.0 | 0.00 | 0.00 | 0.00 | 49 | 1012.1 |
| 20260503170653 | 53 | 278 | 4.0 | 10.0 | 0.00 | 0.00 | 0.00 | 50 | 1012.2 |
| 20260503170152 | 52 | 292 | 5.0 | 11.0 | 0.00 | 0.00 | 0.00 | 50 | 1012.1 |
| 20260503160148 | 51 | 317 | 5.0 | 10.0 | 0.00 | 0.00 | 0.00 | 50 | 1012.9 |
| 20260503150910 | 49 | 284 | 5.0 | 13.0 | 0.00 | 0.00 | 0.00 | 52 | 1013.6 |
| 20260503150148 | 48 | 271 | 4.0 | 11.0 | 0.00 | 0.00 | 0.00 | 53 | 1013.6 |
| 20260503140148 | 46 | 276 | 6.0 | 14.0 | 0.00 | 0.00 | 0.00 | 56 | 1013.8 |
| 20260503131148 | 44 | 355 | 5.0 | 11.0 | 0.00 | 0.00 | 0.00 | 67 | 1014.1 |
| 20260503130649 | 44 | 325 | 4.0 | 10.0 | 0.00 | 0.00 | 0.00 | 67 | 1014.1 |
| 20260503130148 | 44 | 313 | 3.0 | 12.0 | 0.00 | 0.00 | 0.00 | 71 | 1014.1 |
| 20260503120148 | 40 | 300 | 4.0 | 12.0 | 0.00 | 0.00 | 0.00 | 80 | 1014.0 |
| 20260503110648 | 35 | 284 | 1.0 | 4.0 | 0.00 | 0.00 | 0.00 | 86 | 1013.7 |
| 20260503110147 | 35 | 284 | 1.0 | 3.0 | 0.00 | 0.00 | 0.00 | 86 | 1013.5 |
| 20260503100148 | 36 | 284 | 0.0 | 3.0 | 0.00 | 0.00 | 0.00 | 81 | 1013.3 |
| 20260503090147 | 38 | 305 | 2.0 | 8.0 | 0.00 | 0.00 | 0.00 | 80 | 1013.4 |
| 20260503081148 | 38 | 273 | 2.0 | 7.0 | 0.00 | 0.00 | 0.00 | 80 | 1013.5 |
| 20260503080647 | 38 | 260 | 1.0 | 4.0 | 0.00 | 0.00 | 0.00 | 80 | 1013.5 |
| 20260503080147 | 38 | 260 | 1.0 | 4.0 | 0.00 | 0.00 | 0.00 | 80 | 1013.5 |
| 20260503072647 | 38 | 260 | 1.0 | 4.0 | 0.00 | 0.00 | 0.00 | 80 | 1013.5 |
| 20260503072417 | 38 | 260 | 1.0 | 3.0 | 0.00 | 0.00 | 0.00 | 80 | 1013.5 |
| 20260503071648 | 38 | 260 | 1.0 | 7.0 | 0.00 | 0.00 | 0.00 | 80 | 1013.4 |
| 20260503071148 | 38 | 260 | 1.0 | 7.0 | 0.00 | 0.00 | 0.00 | 80 | 1013.4 |
| 20260503070647 | 38 | 259 | 1.0 | 4.0 | 0.00 | 0.00 | 0.00 | 80 | 1013.5 |
| 20260503070148 | 38 | 259 | 1.0 | 4.0 | 0.00 | 0.00 | 0.00 | 80 | 1013.4 |
| 20260503054645 | 39 | 257 | 2.0 | 6.0 | 0.00 | 0.00 | 0.00 | 80 | 1013.6 |
| 20260503054145 | 39 | 257 | 2.0 | 7.0 | 0.00 | 0.00 | 0.00 | 80 | 1013.6 |
| 20260503053645 | 39 | 257 | 2.0 | 7.0 | 0.00 | 0.00 | 0.00 | 80 | 1013.6 |
| 20260503053144 | 39 | 257 | 1.0 | 6.0 | 0.00 | 0.00 | 0.00 | 80 | 1013.6 |
| 20260503052643 | 39 | 256 | 1.0 | 6.0 | 0.00 | 0.00 | 0.00 | 79 | 1013.6 |
| 20260503052143 | 39 | 256 | 1.0 | 7.0 | 0.00 | 0.00 | 0.00 | 80 | 1013.7 |
| 20260503051643 | 39 | 256 | 1.0 | 7.0 | 0.00 | 0.00 | 0.00 | 80 | 1013.8 |
| 20260503051143 | 39 | 263 | 1.0 | 4.0 | 0.00 | 0.00 | 0.00 | 79 | 1013.8 |
| 20260503050644 | 39 | 281 | 1.0 | 7.0 | 0.00 | 0.00 | 0.00 | 79 | 1013.8 |
| 20260503050139 | 39 | 281 | 2.0 | 7.0 | 0.00 | 0.00 | 0.00 | 79 | 1013.9 |
| 20260503045140 | 39 | 274 | 2.0 | 4.0 | 0.00 | 0.00 | 0.00 | 79 | 1014.0 |
| 20260503044639 | 39 | 275 | 1.0 | 4.0 | 0.00 | 0.00 | 0.00 | 79 | 1014.0 |
| 20260503044139 | 40 | 278 | 1.0 | 3.0 | 0.00 | 0.00 | 0.00 | 79 | 1014.1 |
| 20260503043639 | 40 | 279 | 1.0 | 3.0 | 0.00 | 0.00 | 0.00 | 79 | 1014.0 |
| 20260503043358 | 40 | 279 | 1.0 | 3.0 | 0.00 | 0.00 | 0.00 | 79 | 1014.1 |
| 20260503042639 | 40 | 279 | 1.0 | 6.0 | 0.00 | 0.00 | 0.00 | 79 | 1014.2 |
| 20260503042139 | 40 | 279 | 2.0 | 6.0 | 0.00 | 0.00 | 0.00 | 79 | 1014.2 |
| 20260503041638 | 40 | 278 | 2.0 | 6.0 | 0.00 | 0.00 | 0.00 | 79 | 1014.3 |
| 20260503041139 | 40 | 279 | 2.0 | 7.0 | 0.00 | 0.00 | 0.00 | 79 | 1014.2 |
| 20260503040905 | 40 | 279 | 2.0 | 7.0 | 0.00 | 0.00 | 0.00 | 79 | 1014.2 |
| 20260503040308 | 40 | 263 | 1.0 | 4.0 | 0.00 | 0.00 | 0.00 | 78 | 1014.3 |
| 20260503035639 | 40 | 278 | 1.0 | 4.0 | 0.00 | 0.00 | 0.00 | 78 | 1014.3 |
| 20260503035139 | 40 | 281 | 2.0 | 6.0 | 0.00 | 0.01 | 0.00 | 78 | 1014.3 |
| 20260503034640 | 40 | 311 | 3.0 | 7.0 | 0.00 | 0.01 | 0.00 | 78 | 1014.3 |
| 20260503034139 | 40 | 295 | 3.0 | 7.0 | 0.00 | 0.01 | 0.00 | 78 | 1014.4 |
| 20260503033639 | 40 | 286 | 2.0 | 6.0 | 0.00 | 0.01 | 0.00 | 78 | 1014.3 |
| 20260503033139 | 40 | 266 | 3.0 | 8.0 | 0.00 | 0.01 | 0.00 | 78 | 1014.4 |
| 20260503032859 | 40 | 285 | 3.0 | 8.0 | 0.00 | 0.01 | 0.00 | 79 | 1014.4 |
| 20260503032139 | 40 | 264 | 3.0 | 8.0 | 0.00 | 0.01 | 0.00 | 79 | 1014.4 |
| 20260503031639 | 40 | 294 | 2.0 | 7.0 | 0.00 | 0.01 | 0.00 | 79 | 1014.4 |
| 20260503031139 | 40 | 299 | 3.0 | 6.0 | 0.00 | 0.01 | 0.00 | 79 | 1014.5 |
| 20260503030639 | 40 | 315 | 3.0 | 7.0 | 0.00 | 0.01 | 0.00 | 79 | 1014.5 |